TimeCDT,TemperatureF,Dew PointF,Humidity,Sea Level PressureIn,VisibilityMPH,Wind Direction,Wind SpeedMPH,Gust SpeedMPH,PrecipitationIn,Events,Conditions,WindDirDegrees,DateUTC
12:15 AM,71.6,64.4,78,30.08,-9999.0,South,6.9,-,N/A,,Unknown,170,2013-08-22 05:15:00
12:35 AM,71.6,64.4,78,30.08,-9999.0,SSW,4.6,-,N/A,,Clear,200,2013-08-22 05:35:00
12:55 AM,71.6,64.4,78,30.08,-9999.0,South,6.9,-,N/A,,Clear,180,2013-08-22 05:55:00
1:15 AM,69.8,64.4,83,30.08,-9999.0,SSW,4.6,-,N/A,,Clear,210,2013-08-22 06:15:00
1:35 AM,68.0,64.4,88,30.07,-9999.0,South,4.6,-,N/A,,Unknown,190,2013-08-22 06:35:00
1:55 AM,69.8,64.4,83,30.08,-9999.0,SSW,3.5,-,N/A,,Clear,210,2013-08-22 06:55:00
2:15 AM,69.8,64.4,83,30.08,-9999.0,SSE,3.5,-,N/A,,Clear,160,2013-08-22 07:15:00
2:35 AM,68.0,64.4,88,30.08,-9999.0,SE,4.6,-,N/A,,Unknown,140,2013-08-22 07:35:00
2:55 AM,66.2,64.4,94,30.09,-9999.0,ESE,5.8,-,N/A,,Unknown,120,2013-08-22 07:55:00
3:15 AM,66.2,64.4,94,30.08,-9999.0,SSE,4.6,-,N/A,,Unknown,150,2013-08-22 08:15:00
3:35 AM,66.2,64.4,94,30.08,-9999.0,SE,5.8,-,N/A,,Unknown,140,2013-08-22 08:35:00
3:55 AM,68.0,64.4,88,30.08,-9999.0,SE,6.9,-,N/A,,Unknown,140,2013-08-22 08:55:00
4:15 AM,68.0,64.4,88,30.08,-9999.0,SSE,5.8,-,N/A,,Unknown,150,2013-08-22 09:15:00
4:35 AM,68.0,64.4,88,30.07,-9999.0,SSE,5.8,-,N/A,,Unknown,150,2013-08-22 09:35:00
4:55 AM,68.0,64.4,88,30.08,-9999.0,SSE,5.8,-,N/A,,Unknown,150,2013-08-22 09:55:00
5:15 AM,68.0,64.4,88,30.08,-9999.0,SSE,6.9,-,N/A,,Unknown,150,2013-08-22 10:15:00
5:35 AM,66.2,64.4,94,30.08,-9999.0,SSE,6.9,-,N/A,,Unknown,150,2013-08-22 10:35:00
5:55 AM,66.2,64.4,94,30.08,-9999.0,SSE,6.9,-,N/A,,Unknown,150,2013-08-22 10:55:00
6:15 AM,66.2,64.4,94,30.08,-9999.0,SSE,5.8,-,N/A,,Unknown,160,2013-08-22 11:15:00
6:35 AM,66.2,64.4,94,30.08,-9999.0,SSE,8.1,-,N/A,,Unknown,150,2013-08-22 11:35:00
6:55 AM,66.2,64.4,94,30.09,-9999.0,SSE,6.9,-,N/A,,Unknown,150,2013-08-22 11:55:00
7:15 AM,68.0,64.4,88,30.10,-9999.0,SSE,4.6,-,N/A,,Unknown,160,2013-08-22 12:15:00
7:35 AM,68.0,64.4,88,30.10,-9999.0,SSE,4.6,-,N/A,,Unknown,150,2013-08-22 12:35:00
7:55 AM,69.8,66.2,88,30.11,-9999.0,SSE,4.6,-,N/A,,Unknown,160,2013-08-22 12:55:00
8:15 AM,71.6,66.2,83,30.11,-9999.0,SSE,6.9,-,N/A,,Clear,160,2013-08-22 13:15:00
8:35 AM,73.4,66.2,78,30.12,-9999.0,SSE,5.8,-,N/A,,Clear,160,2013-08-22 13:35:00
8:55 AM,75.2,68.0,78,30.13,-9999.0,South,4.6,-,N/A,,Clear,170,2013-08-22 13:55:00
9:15 AM,77.0,68.0,74,30.13,-9999.0,SSE,5.8,-,N/A,,Clear,160,2013-08-22 14:15:00
9:35 AM,78.8,68.0,69,30.13,-9999.0,South,5.8,-,N/A,,Clear,170,2013-08-22 14:35:00
9:55 AM,80.6,68.0,65,30.13,-9999.0,SSE,8.1,-,N/A,,Clear,160,2013-08-22 14:55:00
10:15 AM,80.6,69.8,70,30.13,-9999.0,South,8.1,-,N/A,,Clear,180,2013-08-22 15:15:00
10:35 AM,82.4,69.8,66,30.12,-9999.0,South,8.1,-,N/A,,Clear,190,2013-08-22 15:35:00
10:55 AM,82.4,68.0,62,30.12,-9999.0,SSW,6.9,-,N/A,,Clear,210,2013-08-22 15:55:00
11:15 AM,84.2,69.8,62,30.11,-9999.0,SSW,8.1,-,N/A,,Clear,210,2013-08-22 16:15:00
11:35 AM,84.2,71.6,66,30.11,-9999.0,SSE,9.2,-,N/A,,Clear,160,2013-08-22 16:35:00
11:55 AM,86.0,69.8,58,30.11,-9999.0,South,9.2,-,N/A,,Clear,190,2013-08-22 16:55:00
12:15 PM,86.0,69.8,58,30.10,-9999.0,SSE,9.2,16.1,N/A,,Clear,160,2013-08-22 17:15:00
12:35 PM,86.0,69.8,58,30.09,-9999.0,South,10.4,-,N/A,,Clear,190,2013-08-22 17:35:00
12:55 PM,86.0,68.0,55,30.09,-9999.0,SSW,8.1,-,N/A,,Clear,200,2013-08-22 17:55:00
1:15 PM,86.0,68.0,55,30.08,-9999.0,South,11.5,16.1,N/A,,Partly Cloudy,180,2013-08-22 18:15:00
1:35 PM,87.8,69.8,55,30.07,-9999.0,South,11.5,19.6,N/A,,Partly Cloudy,170,2013-08-22 18:35:00
1:55 PM,87.8,69.8,55,30.06,-9999.0,South,10.4,16.1,N/A,,Partly Cloudy,180,2013-08-22 18:55:00
2:15 PM,87.8,69.8,55,30.06,-9999.0,SSE,9.2,-,N/A,,Scattered Clouds,160,2013-08-22 19:15:00
2:35 PM,89.6,68.0,49,30.06,-9999.0,SSE,12.7,-,N/A,,Scattered Clouds,150,2013-08-22 19:35:00
2:55 PM,89.6,68.0,49,30.05,-9999.0,SSW,11.5,17.3,N/A,,Partly Cloudy,200,2013-08-22 19:55:00
3:15 PM,89.6,68.0,49,30.04,-9999.0,SSE,12.7,-,N/A,,Partly Cloudy,150,2013-08-22 20:15:00
3:35 PM,89.6,68.0,49,30.03,-9999.0,South,11.5,17.3,N/A,,Partly Cloudy,170,2013-08-22 20:35:00
3:55 PM,89.6,66.2,46,30.03,-9999.0,South,10.4,19.6,N/A,,Partly Cloudy,190,2013-08-22 20:55:00
4:15 PM,89.6,66.2,46,30.02,-9999.0,South,13.8,-,N/A,,Clear,190,2013-08-22 21:15:00
4:35 PM,89.6,66.2,46,30.02,-9999.0,SSW,9.2,-,N/A,,Clear,210,2013-08-22 21:35:00
4:55 PM,89.6,66.2,46,30.01,-9999.0,SSW,11.5,-,N/A,,Clear,210,2013-08-22 21:55:00
5:15 PM,89.6,66.2,46,30.01,-9999.0,SW,10.4,-,N/A,,Partly Cloudy,230,2013-08-22 22:15:00
5:35 PM,89.6,64.4,43,30.01,-9999.0,SW,9.2,16.1,N/A,,Clear,220,2013-08-22 22:35:00
5:55 PM,87.8,64.4,46,30.00,-9999.0,SSW,8.1,-,N/A,,Clear,200,2013-08-22 22:55:00
6:15 PM,86.0,66.2,51,30.01,-9999.0,SE,8.1,-,N/A,,Clear,140,2013-08-22 23:15:00
6:35 PM,89.6,68.0,49,30.00,-9999.0,SE,6.9,-,N/A,,Clear,130,2013-08-22 23:35:00
6:55 PM,87.8,69.8,55,30.00,-9999.0,SE,13.8,-,N/A,,Scattered Clouds,130,2013-08-22 23:55:00
7:15 PM,86.0,69.8,58,30.00,-9999.0,SE,9.2,-,N/A,,Partly Cloudy,140,2013-08-23 00:15:00
7:35 PM,86.0,69.8,58,30.00,-9999.0,SE,10.4,-,N/A,,Clear,130,2013-08-23 00:35:00
7:55 PM,84.2,68.0,58,30.01,-9999.0,ESE,10.4,-,N/A,,Partly Cloudy,120,2013-08-23 00:55:00
8:15 PM,82.4,69.8,66,30.01,-9999.0,ESE,9.2,-,N/A,,Scattered Clouds,110,2013-08-23 01:15:00
8:35 PM,82.4,69.8,66,30.02,-9999.0,ESE,10.4,-,N/A,,Scattered Clouds,120,2013-08-23 01:35:00
8:55 PM,82.4,69.8,66,30.02,-9999.0,ESE,9.2,-,N/A,,Clear,120,2013-08-23 01:55:00
9:15 PM,82.4,69.8,66,30.03,-9999.0,ESE,11.5,-,N/A,,Clear,120,2013-08-23 02:15:00
9:35 PM,82.4,69.8,66,30.03,-9999.0,ESE,12.7,-,N/A,,Unknown,120,2013-08-23 02:35:00
9:55 PM,82.4,68.0,62,30.04,-9999.0,ESE,16.1,-,N/A,,Partly Cloudy,120,2013-08-23 02:55:00
10:15 PM,80.6,69.8,70,30.04,-9999.0,SE,15.0,-,N/A,,Clear,130,2013-08-23 03:15:00
10:35 PM,80.6,69.8,70,30.05,-9999.0,SE,15.0,-,N/A,,Clear,130,2013-08-23 03:35:00
10:55 PM,80.6,68.0,65,30.05,-9999.0,ESE,15.0,21.9,N/A,,Unknown,120,2013-08-23 03:55:00
11:15 PM,80.6,68.0,65,30.06,-9999.0,SE,13.8,21.9,N/A,,Unknown,130,2013-08-23 04:15:00
11:35 PM,80.6,68.0,65,30.05,-9999.0,SE,18.4,-,N/A,,Clear,130,2013-08-23 04:35:00
11:55 PM,80.6,68.0,65,30.05,-9999.0,SE,15.0,-,N/A,,Clear,130,2013-08-23 04:55:00